Change the Weather History Date:

Monday, December 3, 2012

  Actual Average Record
Temperature  
Mean Temperature 54 °F 45 °F  
Max Temperature 72 °F 56 °F 72 °F (1998)
Min Temperature 37 °F 34 °F 21 °F (2008)
Degree Days  
Heating Degree Days 10 20  
Month to date heating degree days 59  
Since 1 July heating degree days 666  
Growing Degree Days 4 (Base 50)    
Moisture  
Dew Point 46 °F    
Average Humidity 78    
Maximum Humidity 100    
Minimum Humidity 40    
Precipitation  
Precipitation 0.00 in 0.18 in 0.53 in (1997)
Month to date precipitation 0.56  
Year to date precipitation 48.10  
Sea Level Pressure  
Sea Level Pressure 30.25 in    
Wind  
Wind Speed 0 mph (North)    
Max Wind Speed 0 mph    
Max Gust Speed -    
Visibility 9 miles    
Events      
T = Trace of Precipitation, MM = Missing Value Source: NWS Daily Summary

Daily Weather History Graph

Daily Weather History Graph

Search for Another Location

Airport or City:

Trip Planner

Search our weather history database for the weather conditions in past years. The results will help you decide how hot, cold, wet, or windy it might be!

Date:

Astronomy

Dec. 03, 2012 Rise Set
Actual Time 7:30 AM EST 5:30 PM EST
Civil Twilight 7:03 AM EST 5:57 PM EST
Nautical Twilight 6:32 AM EST 6:29 PM EST
Astronomical Twilight 6:01 AM EST 6:59 PM EST
Moon 10:09 PM EST (12/3) 10:59 AM EST (12/3)
Length of Visible Light 10h 54m
Length of Day
9h 59m
Waning Gibbous, 78% of the Moon is Illuminated
Dec 3
Waning Gibbous
Dec 6
Last Quarter
Dec 13
New
Dec 20
First Quarter
Dec 28
Full

Hourly Weather History & Observations

Time (EST) Temp. Dew Point Humidity Pressure Visibility Wind Dir Wind Speed Gust Speed Precip Events Conditions
12:53 AM 43.0 °F 42.1 °F 97% 30.27 in 8.0 mi Calm Calm - N/A   Clear
1:53 AM 43.0 °F 41.0 °F 93% 30.27 in 10.0 mi Calm Calm - N/A   Clear
2:53 AM 41.0 °F 41.0 °F 100% 30.27 in 6.0 mi Calm Calm - N/A   Clear
3:53 AM 39.9 °F 39.0 °F 97% 30.27 in 9.0 mi Calm Calm - N/A   Clear
4:53 AM 41.0 °F 39.0 °F 93% 30.27 in 10.0 mi Calm Calm - N/A   Clear
5:53 AM 39.0 °F 37.9 °F 96% 30.28 in 9.0 mi Calm Calm - N/A   Clear
6:53 AM 37.9 °F 37.0 °F 97% 30.29 in 9.0 mi Calm Calm - N/A   Clear
7:53 AM 39.0 °F 37.0 °F 93% 30.30 in 8.0 mi Calm Calm - N/A   Clear
8:53 AM 44.1 °F 43.0 °F 96% 30.31 in 7.0 mi Calm Calm - N/A   Clear
9:53 AM 53.6 °F 48.2 °F 82% 30.32 in 10.0 mi Calm Calm - N/A   Clear
10:53 AM 62.1 °F 50.0 °F 65% 30.31 in 10.0 mi Calm Calm - N/A   Clear
11:53 AM 68.0 °F 51.1 °F 55% 30.28 in 10.0 mi Calm Calm - N/A   Clear
12:53 PM 71.1 °F 52.0 °F 51% 30.25 in 10.0 mi Calm Calm - N/A   Clear
1:53 PM 71.6 °F 51.8 °F 50% 30.23 in 10.0 mi Calm Calm - N/A   Clear
2:53 PM 71.1 °F 52.0 °F 51% 30.20 in 10.0 mi Calm Calm - N/A   Mostly Cloudy
3:53 PM 72.0 °F 52.0 °F 49% 30.19 in 10.0 mi Calm Calm - N/A   Mostly Cloudy
4:53 PM 72.0 °F 51.1 °F 48% 30.19 in 10.0 mi Calm Calm - N/A   Mostly Cloudy
5:53 PM 62.1 °F 51.1 °F 67% 30.20 in 10.0 mi Calm Calm - N/A   Clear
6:53 PM 57.9 °F 51.1 °F 78% 30.22 in 10.0 mi Calm Calm - N/A   Overcast
7:53 PM 60.1 °F 52.0 °F 75% 30.22 in 10.0 mi Calm Calm - N/A   Overcast
8:53 PM 59.0 °F 52.0 °F 78% 30.23 in 10.0 mi Calm Calm - N/A   Overcast
9:53 PM 55.9 °F 51.1 °F 84% 30.22 in 10.0 mi Calm Calm - N/A   Scattered Clouds
10:53 PM 53.1 °F 50.0 °F 89% 30.22 in 10.0 mi Calm Calm - N/A   Clear
11:53 PM 51.1 °F 48.9 °F 92% 30.22 in 10.0 mi Calm Calm - N/A   Clear